Photometre #642[NE_1.2] Dushanbe AOT

File : 20221126_642.hum

26/11/2022,03:11:28,TEMP=6.7,BA=5.36,STAT.A=0.0,ExtBa=13.56
26/11/2022,03:15:27,TEMP=6.9,BA=5.36,STAT.A=0.0,ExtBa=13.56
26/11/2022,03:20:10,TEMP=7.1,BA=5.28,STAT.A=0.0,ExtBa=13.56
26/11/2022,03:25:49,TEMP=7.3,BA=5.28,STAT.A=0.0,ExtBa=13.56
26/11/2022,03:32:42,TEMP=7.7,BA=5.36,STAT.A=0.0,ExtBa=13.56
26/11/2022,03:41:21,TEMP=8.2,BA=5.40,STAT.A=0.0,ExtBa=13.55
26/11/2022,03:52:30,TEMP=8.9,BA=5.44,STAT.B=0.0,ExtBa=13.56
26/11/2022,03:57:57,TEMP=9.5,BA=5.44,STAT.A=0.0,ExtBa=13.56
26/11/2022,04:04:08,TEMP=9.9,BA=5.40,STAT.A=0.0,ExtBa=13.56
26/11/2022,04:11:15,TEMP=10.4,BA=5.52,STAT.A=0.0,ExtBa=13.56
26/11/2022,04:13:04,TEMP=10.9,BA=5.52,STAT.F,ExtBa=13.55
26/11/2022,04:27:06,TEMP=11.4,BA=5.64,STAT.D=0.0,ExtBa=13.61
26/11/2022,04:42:06,TEMP=12.3,BA=5.64,STAT.D=0.0,ExtBa=14.26
26/11/2022,04:57:06,TEMP=12.6,BA=5.64,STAT.D=0.0,ExtBa=14.94
26/11/2022,05:12:08,TEMP=13.5,BA=5.64,STAT.F,ExtBa=14.23
26/11/2022,05:27:06,TEMP=13.7,BA=5.40,STAT.D=0.0,ExtBa=14.20
26/11/2022,05:28:34,TEMP=13.9,BA=5.40,STAT.b=0.0
26/11/2022,05:42:08,TEMP=12.7,BA=5.64,STAT.D=0.0,ExtBa=14.96
26/11/2022,05:57:06,TEMP=13.5,BA=5.64,STAT.D=0.0,ExtBa=15.38
26/11/2022,06:12:10,TEMP=14.5,BA=5.64,STAT.F,ExtBa=15.07
26/11/2022,06:27:07,TEMP=14.7,BA=5.64,STAT.D=0.0,ExtBa=14.95
26/11/2022,06:42:07,TEMP=14.9,BA=5.64,STAT.D=0.0,ExtBa=15.17
26/11/2022,06:57:07,TEMP=15.5,BA=5.64,STAT.D=0.0,ExtBa=15.54
26/11/2022,07:12:08,TEMP=18.7,BA=5.64,STAT.F,ExtBa=15.95
26/11/2022,07:27:25,TEMP=20.2,BA=5.40,STAT.D=0.5,ExtBa=15.62
26/11/2022,07:42:07,TEMP=20.1,BA=5.64,STAT.D=0.5,ExtBa=15.75
26/11/2022,07:57:07,TEMP=21.3,BA=5.64,STAT.D=0.5,ExtBa=15.60
26/11/2022,08:12:10,TEMP=22.8,BA=5.64,STAT.F,ExtBa=15.70
26/11/2022,08:27:27,TEMP=22.5,BA=5.44,STAT.D=0.5,ExtBa=15.63
26/11/2022,08:42:07,TEMP=22.5,BA=5.64,STAT.D=0.5,ExtBa=15.69
26/11/2022,08:57:08,TEMP=22.5,BA=5.64,STAT.D=0.5,ExtBa=15.50
26/11/2022,09:12:09,TEMP=22.9,BA=5.64,STAT.F,ExtBa=15.65
26/11/2022,09:27:07,TEMP=22.3,BA=5.40,STAT.D=0.5,ExtBa=15.10
26/11/2022,09:42:07,TEMP=22.1,BA=5.64,STAT.D=0.5,ExtBa=15.76
26/11/2022,09:57:07,TEMP=22.7,BA=5.64,STAT.D=0.5,ExtBa=15.68
26/11/2022,10:12:08,TEMP=22.9,BA=5.64,STAT.F,ExtBa=15.59
26/11/2022,10:27:40,TEMP=22.1,BA=5.40,STAT.A=0.5,ExtBa=15.42
26/11/2022,10:29:32,TEMP=22.2,BA=5.40,STAT.A=0.5,ExtBa=15.41
26/11/2022,10:31:23,TEMP=22.2,BA=5.44,STAT.A=0.5,ExtBa=15.41
26/11/2022,10:33:13,TEMP=22.2,BA=5.44,STAT.B=0.5,ExtBa=15.41
26/11/2022,10:43:14,TEMP=21.7,BA=5.40,STAT.A=0.5,ExtBa=15.33
26/11/2022,10:51:33,TEMP=21.5,BA=5.64,STAT.A=0.5,ExtBa=14.79
26/11/2022,10:58:26,TEMP=21.5,BA=5.64,STAT.A=0.5,ExtBa=15.25
26/11/2022,11:04:04,TEMP=21.5,BA=5.40,STAT.A=0.5,ExtBa=15.11
26/11/2022,11:08:48,TEMP=21.4,BA=5.40,STAT.A=0.5,ExtBa=14.58
26/11/2022,11:12:47,TEMP=21.3,BA=5.44,STAT.A=0.5,ExtBa=14.84